Retour au catalogue

OPS 6226

ActifMilitaireSSO
NORAD 7816·PAYLOAD·🇺🇸 United States

Lancé May 24, 1975 depuis Vandenberg Space Force Base

Loading…

Prochains Passages (prochaines 24 heures)

TLE

FraisSource: Space-Track

Époque: Sep 14, 2026, 12:00 UTC

1 07816U 75043A   26257.50066029  .00000135  00000-0  75162-4 0  9995
2 07816  98.6018 101.8783 0050682 279.1112  80.4335 14.25290856372566

Suivez OPS 6226 en temps réel avec AllMySat

Download on the App Store